This is the latest recevied weather packets stored in our database for station/object SQ3MKP-13. If no packets are shown the sender has not sent any weather packets the latest 10 day(s).
| Time | Temp. | Humidity | Pressure | Rain* | Wind** | Luminosity | Snow |
|---|---|---|---|---|---|---|---|
| 1777881586 | 20° C | 51% | 1003 hPa | - | - | 192 W/m² | - |
| 1777881285 | 20° C | 50% | 1003 hPa | - | - | 198 W/m² | - |
| 1777880984 | 20° C | 49% | 1002.7 hPa | - | - | 181 W/m² | - |
| 1777880683 | 20° C | 50% | 1002.7 hPa | - | - | 182 W/m² | - |
| 1777880382 | 20° C | 48% | 1002.6 hPa | - | - | 188 W/m² | - |
| 1777880081 | 20° C | 47% | 1002.5 hPa | - | - | 216 W/m² | - |
| 1777879780 | 20° C | 48% | 1002.4 hPa | - | - | 306 W/m² | - |
| 1777879480 | 20° C | 48% | 1002.3 hPa | - | - | 327 W/m² | - |
| 1777879179 | 20° C | 47% | 1002.4 hPa | - | - | 251 W/m² | - |
| 1777878877 | 20.56° C | 47% | 1002.5 hPa | - | - | 289 W/m² | - |
| 1777878577 | 20° C | 47% | 1002.6 hPa | - | - | 340 W/m² | - |
| 1777878276 | 20° C | 46% | 1002.6 hPa | - | - | 378 W/m² | - |
| 1777877974 | 19.44° C | 48% | 1002.7 hPa | - | - | 439 W/m² | - |
| 1777877674 | 19.44° C | 47% | 1002.8 hPa | - | - | 433 W/m² | - |
| 1777877373 | 19.44° C | 48% | 1002.7 hPa | - | - | 396 W/m² | - |
| 1777877072 | 19.44° C | 48% | 1002.7 hPa | - | - | 359 W/m² | - |
| 1777876771 | 18.89° C | 49% | 1002.7 hPa | - | - | 357 W/m² | - |
| 1777876470 | 18.89° C | 49% | 1002.6 hPa | - | - | 261 W/m² | - |
| 1777876169 | 18.89° C | 49% | 1002.5 hPa | - | - | 243 W/m² | - |
| 1777875868 | 18.33° C | 50% | 1002.3 hPa | - | - | 122 W/m² | - |
| 1777875567 | 18.33° C | 52% | 1002.5 hPa | - | - | 120 W/m² | - |
| 1777875266 | 17.78° C | 52% | 1002.6 hPa | - | - | 117 W/m² | - |
| 1777874965 | 17.78° C | 53% | 1002.5 hPa | - | - | 117 W/m² | - |
| 1777874664 | 18.33° C | 51% | 1002.2 hPa | - | - | 117 W/m² | - |
| 1777874363 | 18.33° C | 49% | 1002 hPa | - | - | 216 W/m² | - |
* Rain since midnight (hover to see other rain measurements)
** Current wind speed in m/s (hover to see current wind gust speed)